0 HST 1 20580U 90037B 26146.30085647 .00006627 00000-0 21072-3 0 9992 2 20580 28.4732 230.1289 0001285 261.2187 98.8263 15.30494849785217 0 ISS (ZARYA) 1 25544U 98067A 26146.19619863 .00012013 00000-0 22272-3 0 9997 2 25544 51.6332 48.9673 0007421 99.1432 261.0396 15.49386458568347 0 CXO 1 25867U 99040B 26148.21998181 .00000426 00000-0 00000-0 0 9992 2 25867 55.8621 117.1917 7866111 310.4222 0.0280 0.37805843 17240